| time (UTC) | temp C | wind direction | speed KPH | gust KPH | rain 1hr cm | rain 24hr cm | rain mn cm | humidity % | barometer mb |
| 20260503200055 | 15 | 159 | 1.6 | 12.9 | 0.00 | 0.00 | 0.00 | 80 | 1008.3 |
| 20260503194526 | 15 | 222 | 9.7 | 24.1 | 0.00 | 0.00 | 0.00 | 78 | 1008.4 |
| 20260503193048 | 15 | 164 | 8.0 | 25.7 | 0.00 | 0.00 | 0.00 | 79 | 1008.4 |
| 20260503191600 | 16 | 146 | 3.2 | 12.9 | 0.00 | 0.00 | 0.00 | 78 | 1008.5 |
| 20260503190039 | 15 | 19 | 1.6 | 11.3 | 0.00 | 0.00 | 0.00 | 82 | 1008.4 |
| 20260503184507 | 14 | 153 | 4.8 | 17.7 | 0.00 | 0.00 | 0.00 | 80 | 1008.4 |
| 20260503183036 | 14 | 144 | 6.4 | 19.3 | 0.00 | 0.00 | 0.00 | 81 | 1008.2 |
| 20260503181619 | 14 | 175 | 3.2 | 11.3 | 0.00 | 0.00 | 0.00 | 84 | 1008.1 |
| 20260503180042 | 13 | 171 | 4.8 | 12.9 | 0.00 | 0.00 | 0.00 | 86 | 1008.0 |
| 20260503174601 | 12 | 169 | 0.0 | 12.9 | 0.00 | 0.00 | 0.00 | 90 | 1008.2 |
| 20260503174501 | 12 | 169 | 0.0 | 12.9 | 0.00 | 0.00 | 0.00 | 89 | 1008.2 |
| 20260503173041 | 12 | 219 | 1.6 | 24.1 | 0.00 | 0.00 | 0.00 | 89 | 1008.2 |
| 20260503171550 | 12 | 158 | 8.0 | 16.1 | 0.00 | 0.00 | 0.00 | 89 | 1008.1 |
| 20260503081557 | 11 | 251 | 0.0 | 8.0 | 0.00 | 0.00 | 0.00 | 90 | 1006.7 |
| 20260503071557 | 11 | 220 | 0.0 | 3.2 | 0.00 | 0.00 | 0.00 | 90 | 1006.8 |
| 20260503054601 | 11 | 219 | 1.6 | 11.3 | 0.00 | 0.00 | 0.00 | 90 | 1007.1 |
| 20260503054502 | 11 | 198 | 0.0 | 8.0 | 0.00 | 0.00 | 0.00 | 90 | 1007.2 |
| 20260503053036 | 11 | 219 | 1.6 | 4.8 | 0.00 | 0.00 | 0.00 | 89 | 1007.3 |
| 20260503051551 | 11 | 219 | 0.0 | 6.4 | 0.00 | 0.00 | 0.00 | 89 | 1007.4 |
| 20260503050042 | 11 | 234 | 0.0 | 9.7 | 0.00 | 0.00 | 0.00 | 89 | 1007.2 |
| 20260503044508 | 11 | 212 | 0.0 | 11.3 | 0.00 | 0.00 | 0.00 | 89 | 1007.2 |
| 20260503043034 | 11 | 207 | 0.0 | 8.0 | 0.00 | 0.00 | 0.00 | 89 | 1007.0 |
| 20260503041600 | 11 | 207 | 1.6 | 11.3 | 0.00 | 0.00 | 0.00 | 89 | 1007.0 |
| 20260503041503 | 11 | 247 | 3.2 | 11.3 | 0.00 | 0.00 | 0.00 | 89 | 1007.0 |
| 20260503040035 | 11 | 217 | 0.0 | 8.0 | 0.00 | 0.00 | 0.00 | 89 | 1007.0 |
| 20260503034602 | 11 | 236 | 1.6 | 9.7 | 0.00 | 0.00 | 0.00 | 89 | 1007.0 |
| 20260503034501 | 11 | 190 | 1.6 | 9.7 | 0.00 | 0.00 | 0.00 | 89 | 1007.0 |
| 20260503033028 | 11 | 202 | 1.6 | 12.9 | 0.00 | 0.00 | 0.00 | 89 | 1006.9 |
| 20260503031551 | 11 | 240 | 1.6 | 12.9 | 0.00 | 0.00 | 0.00 | 89 | 1006.6 |
| 20260503030042 | 11 | 205 | 1.6 | 8.0 | 0.00 | 0.00 | 0.00 | 89 | 1006.4 |
| 20260503024506 | 12 | 212 | 1.6 | 11.3 | 0.00 | 0.00 | 0.00 | 89 | 1006.5 |
| 20260503023037 | 12 | 193 | 1.6 | 9.7 | 0.00 | 0.00 | 0.00 | 89 | 1006.5 |
| 20260503021557 | 12 | 228 | 3.2 | 14.5 | 0.00 | 0.00 | 0.00 | 88 | 1006.4 |
| 20260503020048 | 12 | 244 | 0.0 | 11.3 | 0.00 | 0.00 | 0.00 | 88 | 1006.5 |
| 20260503014510 | 12 | 222 | 3.2 | 14.5 | 0.00 | 0.00 | 0.00 | 87 | 1006.6 |
| 20260503013025 | 12 | 189 | 3.2 | 14.5 | 0.00 | 0.00 | 0.00 | 87 | 1006.7 |
| 20260503011553 | 12 | 179 | 4.8 | 12.9 | 0.00 | 0.00 | 0.00 | 86 | 1006.7 |
| 20260503010056 | 12 | 198 | 6.4 | 19.3 | 0.00 | 0.00 | 0.00 | 86 | 1006.7 |
| 20260503004502 | 12 | 257 | 4.8 | 17.7 | 0.00 | 0.00 | 0.00 | 85 | 1006.8 |
| 20260503003032 | 13 | 209 | 4.8 | 19.3 | 0.00 | 0.00 | 0.00 | 85 | 1006.9 |
| 20260503001554 | 13 | 211 | 4.8 | 14.5 | 0.00 | 0.00 | 0.00 | 83 | 1006.9 |
| 20260503000045 | 13 | 188 | 3.2 | 16.1 | 0.00 | 0.00 | 0.00 | 83 | 1006.9 |
| 20260502234507 | 13 | 206 | 6.4 | 16.1 | 0.00 | 0.00 | 0.00 | 84 | 1006.9 |
| 20260502233029 | 13 | 174 | 8.0 | 17.7 | 0.00 | 0.00 | 0.00 | 84 | 1007.0 |
| 20260502231554 | 13 | 139 | 4.8 | 20.9 | 0.00 | 0.00 | 0.00 | 84 | 1007.1 |
| 20260502230032 | 13 | 239 | 8.0 | 19.3 | 0.00 | 0.00 | 0.00 | 84 | 1007.3 |
| 20260502224602 | 13 | 227 | 3.2 | 17.7 | 0.00 | 0.00 | 0.00 | 84 | 1007.5 |
| 20260502223036 | 13 | 168 | 4.8 | 19.3 | 0.00 | 0.00 | 0.00 | 84 | 1007.9 |
| 20260502221552 | 13 | 213 | 6.4 | 20.9 | 0.00 | 0.00 | 0.00 | 84 | 1008.1 |
| 20260502220039 | 13 | 255 | 11.3 | 24.1 | 0.00 | 0.00 | 0.00 | 84 | 1008.1 |
| 20260502214616 | 13 | 209 | 14.5 | 25.7 | 0.00 | 0.00 | 0.00 | 84 | 1008.1 |
| 20260502214502 | 13 | 152 | 11.3 | 25.7 | 0.00 | 0.00 | 0.00 | 84 | 1008.0 |
| 20260502213027 | 13 | 250 | 3.2 | 16.1 | 0.00 | 0.00 | 0.00 | 84 | 1008.2 |
| 20260502211555 | 13 | 183 | 0.0 | 16.1 | 0.00 | 0.00 | 0.00 | 84 | 1008.2 |
| 20260502210036 | 13 | 173 | 8.0 | 19.3 | 0.00 | 0.00 | 0.00 | 82 | 1008.3 |
| 20260502204601 | 13 | 34 | 8.0 | 16.1 | 0.00 | 0.00 | 0.00 | 86 | 1008.4 |
| 20260502204503 | 13 | 87 | 6.4 | 16.1 | 0.00 | 0.00 | 0.00 | 86 | 1008.4 |
| 20260502203043 | 13 | 191 | 4.8 | 14.5 | 0.00 | 0.00 | 0.00 | 86 | 1008.6 |
| 20260502201551 | 13 | 26 | 1.6 | 16.1 | 0.00 | 0.00 | 0.00 | 87 | 1008.6 |